Year,Month,Day,Hour,Minute,Value (Times are PST for windspeed in km/hr)
2017,09,30,00,00,3.30
2017,09,30,00,01,6.00
2017,09,30,00,02,7.30
2017,09,30,00,03,6.40
2017,09,30,00,04,7.70
2017,09,30,00,05,4.90
2017,09,30,00,06,6.60
2017,09,30,00,07,8.10
2017,09,30,00,08,5.90
2017,09,30,00,09,5.60
2017,09,30,00,10,6.00
2017,09,30,00,11,7.70
2017,09,30,00,12,8.80
2017,09,30,00,13,10.60
2017,09,30,00,14,8.90
2017,09,30,00,15,9.00
2017,09,30,00,16,7.60
2017,09,30,00,17,7.30
2017,09,30,00,18,6.20
2017,09,30,00,19,8.60
2017,09,30,00,20,8.50
2017,09,30,00,21,7.10
2017,09,30,00,22,7.30
2017,09,30,00,23,4.90
2017,09,30,00,24,6.00
2017,09,30,00,25,6.80
2017,09,30,00,26,7.30
2017,09,30,00,27,8.30
2017,09,30,00,28,7.30
2017,09,30,00,29,8.10
2017,09,30,00,30,7.80
2017,09,30,00,31,7.80
2017,09,30,00,32,8.20
2017,09,30,00,33,7.70
2017,09,30,00,34,6.70
2017,09,30,00,35,7.50
2017,09,30,00,36,7.50
2017,09,30,00,37,7.90
2017,09,30,00,38,7.90
2017,09,30,00,39,8.10
2017,09,30,00,40,7.20
2017,09,30,00,41,5.60
2017,09,30,00,42,6.80
2017,09,30,00,43,6.80
2017,09,30,00,44,6.90
2017,09,30,00,45,7.10
2017,09,30,00,46,4.40
2017,09,30,00,47,5.50
2017,09,30,00,48,5.80
2017,09,30,00,49,4.20
2017,09,30,00,50,4.50
2017,09,30,00,51,3.00
2017,09,30,00,52,4.90
2017,09,30,00,53,4.00
2017,09,30,00,54,1.50
2017,09,30,00,55,3.20
2017,09,30,00,56,1.50
2017,09,30,00,57,3.10
2017,09,30,00,58,2.30
2017,09,30,00,59,2.20
2017,09,30,01,00,2.70
2017,09,30,01,01,3.00
2017,09,30,01,02,3.10
2017,09,30,01,03,1.30
2017,09,30,01,04,2.30
2017,09,30,01,05,2.60
2017,09,30,01,06,2.70
2017,09,30,01,07,3.80
2017,09,30,01,08,3.80
2017,09,30,01,09,3.00
2017,09,30,01,10,2.80
2017,09,30,01,11,1.30
2017,09,30,01,12,1.50
2017,09,30,01,13,1.80
2017,09,30,01,14,1.40
2017,09,30,01,15,1.60
2017,09,30,01,16,1.90
2017,09,30,01,17,1.50
2017,09,30,01,18,1.70
2017,09,30,01,19,2.20
2017,09,30,01,20,2.10
2017,09,30,01,21,1.20
2017,09,30,01,22,1.60
2017,09,30,01,23,0.20
2017,09,30,01,24,0.80
2017,09,30,01,25,1.90
2017,09,30,01,26,1.30
2017,09,30,01,27,0.00
2017,09,30,01,28,0.00
2017,09,30,01,29,0.00
2017,09,30,01,30,0.00
2017,09,30,01,31,0.00
2017,09,30,01,32,0.00
2017,09,30,01,33,0.00
2017,09,30,01,34,0.00
2017,09,30,01,35,0.00
2017,09,30,01,36,0.00
2017,09,30,01,37,0.00
2017,09,30,01,38,0.00
2017,09,30,01,39,0.00
2017,09,30,01,40,0.00
2017,09,30,01,41,0.00
2017,09,30,01,42,0.00
2017,09,30,01,43,0.00
2017,09,30,01,44,0.00
2017,09,30,01,45,0.00
2017,09,30,01,46,0.00
2017,09,30,01,47,0.00
2017,09,30,01,48,0.00
2017,09,30,01,49,0.90
2017,09,30,01,50,1.90
2017,09,30,01,51,3.40
2017,09,30,01,52,5.10
2017,09,30,01,53,7.30
2017,09,30,01,54,8.80
2017,09,30,01,55,12.80
2017,09,30,01,56,8.90
2017,09,30,01,57,7.10
2017,09,30,01,58,7.00
2017,09,30,01,59,4.20
2017,09,30,02,00,3.70
2017,09,30,02,01,5.70
2017,09,30,02,02,5.30
2017,09,30,02,03,6.00
2017,09,30,02,04,6.70
2017,09,30,02,05,7.10
2017,09,30,02,06,6.00
2017,09,30,02,07,6.80
2017,09,30,02,08,8.00
2017,09,30,02,09,10.40
2017,09,30,02,10,7.00
2017,09,30,02,11,3.50
2017,09,30,02,12,5.60
2017,09,30,02,13,6.40
2017,09,30,02,14,9.00
2017,09,30,02,15,8.10
2017,09,30,02,16,5.30
2017,09,30,02,17,6.40
2017,09,30,02,18,6.90
2017,09,30,02,19,6.00
2017,09,30,02,20,6.90
2017,09,30,02,21,5.20
2017,09,30,02,22,4.70
2017,09,30,02,23,4.00
2017,09,30,02,24,3.10
2017,09,30,02,25,5.20
2017,09,30,02,26,6.60
2017,09,30,02,27,6.50
2017,09,30,02,28,7.80
2017,09,30,02,29,5.60
2017,09,30,02,30,5.20
2017,09,30,02,31,4.80
2017,09,30,02,32,5.00
2017,09,30,02,33,4.20
2017,09,30,02,34,3.50
2017,09,30,02,35,5.10
2017,09,30,02,36,6.80
2017,09,30,02,37,4.90
2017,09,30,02,38,5.60
2017,09,30,02,39,6.60
2017,09,30,02,40,5.40
2017,09,30,02,41,6.40
2017,09,30,02,42,6.00
2017,09,30,02,43,4.30
2017,09,30,02,44,4.40
2017,09,30,02,45,3.90
2017,09,30,02,46,4.00
2017,09,30,02,47,4.50
2017,09,30,02,48,3.10
2017,09,30,02,49,3.70
2017,09,30,02,50,5.30
2017,09,30,02,51,3.70
2017,09,30,02,52,5.60
2017,09,30,02,53,5.50
2017,09,30,02,54,7.30
2017,09,30,02,55,7.80
2017,09,30,02,56,7.80
2017,09,30,02,57,10.00
2017,09,30,02,58,12.30
2017,09,30,02,59,14.00
2017,09,30,03,00,10.20
2017,09,30,03,01,11.60
2017,09,30,03,02,13.10
2017,09,30,03,03,16.10
2017,09,30,03,04,11.50
2017,09,30,03,05,10.10
2017,09,30,03,06,13.50
2017,09,30,03,07,15.40
2017,09,30,03,08,14.50
2017,09,30,03,09,8.90
2017,09,30,03,10,5.70
2017,09,30,03,11,14.10
2017,09,30,03,12,7.50
2017,09,30,03,13,8.50
2017,09,30,03,14,6.80
2017,09,30,03,15,5.70
2017,09,30,03,16,5.30
2017,09,30,03,17,4.30
2017,09,30,03,18,7.30
2017,09,30,03,19,6.60
2017,09,30,03,20,5.60
2017,09,30,03,21,5.30
2017,09,30,03,22,5.30
2017,09,30,03,23,6.80
2017,09,30,03,24,6.80
2017,09,30,03,25,6.70
2017,09,30,03,26,6.30
2017,09,30,03,27,6.90
2017,09,30,03,28,5.40
2017,09,30,03,29,6.40
2017,09,30,03,30,8.00
2017,09,30,03,31,5.40
2017,09,30,03,32,4.60
2017,09,30,03,33,3.10
2017,09,30,03,34,4.00
2017,09,30,03,35,4.50
2017,09,30,03,36,3.90
2017,09,30,03,37,5.30
2017,09,30,03,38,4.90
2017,09,30,03,39,4.60
2017,09,30,03,40,3.10
2017,09,30,03,41,4.00
2017,09,30,03,42,4.40
2017,09,30,03,43,3.10
2017,09,30,03,44,2.30
2017,09,30,03,45,3.30
2017,09,30,03,46,3.90
2017,09,30,03,47,4.80
2017,09,30,03,48,4.20
2017,09,30,03,49,4.50
2017,09,30,03,50,5.40
2017,09,30,03,51,5.30
2017,09,30,03,52,5.20
2017,09,30,03,53,5.20
2017,09,30,03,54,6.00
2017,09,30,03,55,6.00
2017,09,30,03,56,7.60
2017,09,30,03,57,6.40
2017,09,30,03,58,5.10
2017,09,30,03,59,4.80
2017,09,30,04,00,5.10
2017,09,30,04,01,3.50
2017,09,30,04,02,3.30
2017,09,30,04,03,5.10
2017,09,30,04,04,4.80
2017,09,30,04,05,6.00
2017,09,30,04,06,5.60
2017,09,30,04,07,4.70
2017,09,30,04,08,6.80
2017,09,30,04,09,8.70
2017,09,30,04,10,5.10
2017,09,30,04,11,8.00
2017,09,30,04,12,7.40
2017,09,30,04,13,6.50
2017,09,30,04,14,6.50
2017,09,30,04,15,7.60
2017,09,30,04,16,6.90
2017,09,30,04,17,6.80
2017,09,30,04,18,8.60
2017,09,30,04,19,7.60
2017,09,30,04,20,6.90
2017,09,30,04,21,7.70
2017,09,30,04,22,7.10
2017,09,30,04,23,6.80
2017,09,30,04,24,7.80
2017,09,30,04,25,6.30
2017,09,30,04,26,6.20
2017,09,30,04,27,5.40
2017,09,30,04,28,4.40
2017,09,30,04,29,6.00
2017,09,30,04,30,6.40
2017,09,30,04,31,5.30
2017,09,30,04,32,5.90
2017,09,30,04,33,6.70
2017,09,30,04,34,5.10
2017,09,30,04,35,8.60
2017,09,30,04,36,7.60
2017,09,30,04,37,7.00
2017,09,30,04,38,7.00
2017,09,30,04,39,7.60
2017,09,30,04,40,8.10
2017,09,30,04,41,9.70
2017,09,30,04,42,9.00
2017,09,30,04,43,7.40
2017,09,30,04,44,6.80
2017,09,30,04,45,7.90
2017,09,30,04,46,8.00
2017,09,30,04,47,8.00
2017,09,30,04,48,8.70
2017,09,30,04,49,8.10
2017,09,30,04,50,9.80
2017,09,30,04,51,9.50
2017,09,30,04,52,10.30
2017,09,30,04,53,9.20
2017,09,30,04,54,8.40
2017,09,30,04,55,7.60
2017,09,30,04,56,8.60
2017,09,30,04,57,8.90
2017,09,30,04,58,7.40
2017,09,30,04,59,9.00
2017,09,30,05,00,9.20
2017,09,30,05,01,8.90
2017,09,30,05,02,8.20
2017,09,30,05,03,7.50
2017,09,30,05,04,6.10
2017,09,30,05,05,6.50
2017,09,30,05,06,8.00
2017,09,30,05,07,6.70
2017,09,30,05,08,6.60
2017,09,30,05,09,5.90
2017,09,30,05,10,7.10
2017,09,30,05,11,6.50
2017,09,30,05,12,5.70
2017,09,30,05,13,6.40
2017,09,30,05,14,6.00
2017,09,30,05,15,4.70
2017,09,30,05,16,4.50
2017,09,30,05,17,4.30
2017,09,30,05,18,4.70
2017,09,30,05,19,5.70
2017,09,30,05,20,6.40
2017,09,30,05,21,6.90
2017,09,30,05,22,7.10
2017,09,30,05,23,6.40
2017,09,30,05,24,6.40
2017,09,30,05,25,7.70
2017,09,30,05,26,7.50
2017,09,30,05,27,8.30
2017,09,30,05,28,9.20
2017,09,30,05,29,10.80
2017,09,30,05,30,8.80
2017,09,30,05,31,8.70
2017,09,30,05,32,9.70
2017,09,30,05,33,9.70
2017,09,30,05,34,8.90
2017,09,30,05,35,6.70
2017,09,30,05,36,7.40
2017,09,30,05,37,8.80
2017,09,30,05,38,9.80
2017,09,30,05,39,9.50
2017,09,30,05,40,10.70
2017,09,30,05,41,8.70
2017,09,30,05,42,8.80
2017,09,30,05,43,10.10
2017,09,30,05,44,9.70
2017,09,30,05,45,11.60
2017,09,30,05,46,11.80
2017,09,30,05,47,10.20
2017,09,30,05,48,9.70
2017,09,30,05,49,11.60
2017,09,30,05,50,9.40
2017,09,30,05,51,13.20
2017,09,30,05,52,12.30
2017,09,30,05,53,11.20
2017,09,30,05,54,10.30
2017,09,30,05,55,11.40
2017,09,30,05,56,9.90
2017,09,30,05,57,12.40
2017,09,30,05,58,11.90
2017,09,30,05,59,9.60
2017,09,30,06,00,9.20
2017,09,30,06,01,9.00
2017,09,30,06,02,8.30
2017,09,30,06,03,7.20
2017,09,30,06,04,8.00
2017,09,30,06,05,6.80
2017,09,30,06,06,6.60
2017,09,30,06,07,7.30
2017,09,30,06,08,5.90
2017,09,30,06,09,5.90
2017,09,30,06,10,4.70
2017,09,30,06,11,5.80
2017,09,30,06,12,6.80
2017,09,30,06,13,6.10
2017,09,30,06,14,6.30
2017,09,30,06,15,7.30
2017,09,30,06,16,9.70
2017,09,30,06,17,7.70
2017,09,30,06,18,9.20
2017,09,30,06,19,9.20
2017,09,30,06,20,10.10
2017,09,30,06,21,9.80
2017,09,30,06,22,9.00
2017,09,30,06,23,8.90
2017,09,30,06,24,7.40
2017,09,30,06,25,7.60
2017,09,30,06,26,7.50
2017,09,30,06,27,7.30
2017,09,30,06,28,5.00
2017,09,30,06,29,4.80
2017,09,30,06,30,5.40
2017,09,30,06,31,4.00
2017,09,30,06,32,5.10
2017,09,30,06,33,5.10
2017,09,30,06,34,5.60
2017,09,30,06,35,5.10
2017,09,30,06,36,3.90
2017,09,30,06,37,3.30
2017,09,30,06,38,4.90
2017,09,30,06,39,4.70
2017,09,30,06,40,5.10
2017,09,30,06,41,5.40
2017,09,30,06,42,5.90
2017,09,30,06,43,4.90
2017,09,30,06,44,4.70
2017,09,30,06,45,5.00
2017,09,30,06,46,6.30
2017,09,30,06,47,6.40
2017,09,30,06,48,7.20
2017,09,30,06,49,6.80
2017,09,30,06,50,6.10
2017,09,30,06,51,7.20
2017,09,30,06,52,7.20
2017,09,30,06,53,7.50
2017,09,30,06,54,7.30
2017,09,30,06,55,6.20
2017,09,30,06,56,6.20
2017,09,30,06,57,5.70
2017,09,30,06,58,5.10
2017,09,30,06,59,4.30
2017,09,30,07,00,4.80
2017,09,30,07,01,4.90
2017,09,30,07,02,4.80
2017,09,30,07,03,3.60
2017,09,30,07,04,3.70
2017,09,30,07,05,4.10
2017,09,30,07,06,4.50
2017,09,30,07,07,3.70
2017,09,30,07,08,2.70
2017,09,30,07,09,4.00
2017,09,30,07,10,3.50
2017,09,30,07,11,4.20
2017,09,30,07,12,3.90
2017,09,30,07,13,4.20
2017,09,30,07,14,3.70
2017,09,30,07,15,3.90
2017,09,30,07,16,4.30
2017,09,30,07,17,4.20
2017,09,30,07,18,5.10
2017,09,30,07,19,6.00
2017,09,30,07,20,4.70
2017,09,30,07,21,4.40
2017,09,30,07,22,4.10
2017,09,30,07,23,4.30
2017,09,30,07,24,4.10
2017,09,30,07,25,4.40
2017,09,30,07,26,5.30
2017,09,30,07,27,5.50
2017,09,30,07,28,5.20
2017,09,30,07,29,5.20
2017,09,30,07,30,5.70
2017,09,30,07,31,7.00
2017,09,30,07,32,6.70
2017,09,30,07,33,7.40
2017,09,30,07,34,4.70
2017,09,30,07,35,5.20
2017,09,30,07,36,8.60
2017,09,30,07,37,6.30
2017,09,30,07,38,9.30
2017,09,30,07,39,7.80
2017,09,30,07,40,9.80
2017,09,30,07,41,12.20
2017,09,30,07,42,12.90
2017,09,30,07,43,12.70
2017,09,30,07,44,13.90
2017,09,30,07,45,11.20
2017,09,30,07,46,13.10
2017,09,30,07,47,13.50
2017,09,30,07,48,13.10
2017,09,30,07,49,11.60
2017,09,30,07,50,11.70
2017,09,30,07,51,12.90
2017,09,30,07,52,13.00
2017,09,30,07,53,11.50
2017,09,30,07,54,12.70
2017,09,30,07,55,14.10
2017,09,30,07,56,11.90
2017,09,30,07,57,12.00
2017,09,30,07,58,13.20
2017,09,30,07,59,13.90
2017,09,30,08,00,11.30
2017,09,30,08,01,11.60
2017,09,30,08,02,12.60
2017,09,30,08,03,13.50
2017,09,30,08,04,14.60
2017,09,30,08,05,13.90
2017,09,30,08,06,14.00
2017,09,30,08,07,15.30
2017,09,30,08,08,14.90
2017,09,30,08,09,17.00
2017,09,30,08,10,14.60
2017,09,30,08,11,13.80
2017,09,30,08,12,13.40
2017,09,30,08,13,13.80
2017,09,30,08,14,13.90
2017,09,30,08,15,16.30
2017,09,30,08,16,18.00
2017,09,30,08,17,18.10
2017,09,30,08,18,14.20
2017,09,30,08,19,14.30
2017,09,30,08,20,13.40
2017,09,30,08,21,13.80
2017,09,30,08,22,10.80
2017,09,30,08,23,12.30
2017,09,30,08,24,14.60
2017,09,30,08,25,13.10
2017,09,30,08,26,10.90
2017,09,30,08,27,15.40
2017,09,30,08,28,10.40
2017,09,30,08,29,10.50
2017,09,30,08,30,13.60
2017,09,30,08,31,9.90
2017,09,30,08,32,11.10
2017,09,30,08,33,12.50
2017,09,30,08,34,13.40
2017,09,30,08,35,14.00
2017,09,30,08,36,14.40
2017,09,30,08,37,14.60
2017,09,30,08,38,9.30
2017,09,30,08,39,14.60
2017,09,30,08,40,14.30
2017,09,30,08,41,11.30
2017,09,30,08,42,13.20
2017,09,30,08,43,14.40
2017,09,30,08,44,16.80
2017,09,30,08,45,8.40
2017,09,30,08,46,13.20
2017,09,30,08,47,16.20
2017,09,30,08,48,15.80
2017,09,30,08,49,15.90
2017,09,30,08,50,15.50
2017,09,30,08,51,17.20
2017,09,30,08,52,18.90
2017,09,30,08,53,16.80
2017,09,30,08,54,15.10
2017,09,30,08,55,12.10
2017,09,30,08,56,15.20
2017,09,30,08,57,14.10
2017,09,30,08,58,12.90
2017,09,30,08,59,10.90
2017,09,30,09,00,14.20
2017,09,30,09,01,11.60
2017,09,30,09,02,11.70
2017,09,30,09,03,9.00
2017,09,30,09,04,8.10
2017,09,30,09,05,11.30
2017,09,30,09,06,7.90
2017,09,30,09,07,8.30
2017,09,30,09,08,7.70
2017,09,30,09,09,11.10
2017,09,30,09,10,8.80
2017,09,30,09,11,12.70
2017,09,30,09,12,8.20
2017,09,30,09,13,10.90
2017,09,30,09,14,13.00
2017,09,30,09,15,13.80
2017,09,30,09,16,13.10
2017,09,30,09,17,13.00
2017,09,30,09,18,12.90
2017,09,30,09,19,16.40
2017,09,30,09,20,15.70
2017,09,30,09,21,11.30
2017,09,30,09,22,15.00
2017,09,30,09,23,13.40
2017,09,30,09,24,14.20
2017,09,30,09,25,14.00
2017,09,30,09,26,15.40
2017,09,30,09,27,15.20
2017,09,30,09,28,15.50
2017,09,30,09,29,12.60
2017,09,30,09,30,9.70
2017,09,30,09,31,13.80
2017,09,30,09,32,14.30
2017,09,30,09,33,10.50
2017,09,30,09,34,8.90
2017,09,30,09,35,12.90
2017,09,30,09,36,15.30
2017,09,30,09,37,19.80
2017,09,30,09,38,14.00
2017,09,30,09,39,13.30
2017,09,30,09,40,15.20
2017,09,30,09,41,14.30
2017,09,30,09,42,13.30
2017,09,30,09,43,14.20
2017,09,30,09,44,15.10
2017,09,30,09,45,13.30
2017,09,30,09,46,12.10
2017,09,30,09,47,16.30
2017,09,30,09,48,13.00
2017,09,30,09,49,13.30
2017,09,30,09,50,13.40
2017,09,30,09,51,17.30
2017,09,30,09,52,19.30
2017,09,30,09,53,15.60
2017,09,30,09,54,15.70
2017,09,30,09,55,15.00
2017,09,30,09,56,15.60
2017,09,30,09,57,15.00
2017,09,30,09,58,11.30
2017,09,30,09,59,13.80
2017,09,30,10,00,12.20
2017,09,30,10,01,11.80
2017,09,30,10,02,13.50
2017,09,30,10,03,12.30
2017,09,30,10,04,9.70
2017,09,30,10,05,7.20
2017,09,30,10,06,9.70
2017,09,30,10,07,10.10
2017,09,30,10,08,9.50
2017,09,30,10,09,8.60
2017,09,30,10,10,5.30
2017,09,30,10,11,6.40
2017,09,30,10,12,11.40
2017,09,30,10,13,17.10
2017,09,30,10,14,14.20
2017,09,30,10,15,15.30
2017,09,30,10,16,10.10
2017,09,30,10,17,6.60
2017,09,30,10,18,8.40
2017,09,30,10,19,17.00
2017,09,30,10,20,9.80
2017,09,30,10,21,9.10
2017,09,30,10,22,12.70
2017,09,30,10,23,17.10
2017,09,30,10,24,21.40
2017,09,30,10,25,16.70
2017,09,30,10,26,15.90
2017,09,30,10,27,16.70
2017,09,30,10,28,18.80
2017,09,30,10,29,18.90
2017,09,30,10,30,18.70
2017,09,30,10,31,17.20
2017,09,30,10,32,19.00
2017,09,30,10,33,22.10
2017,09,30,10,34,15.30
2017,09,30,10,35,15.00
2017,09,30,10,36,14.80
2017,09,30,10,37,18.90
2017,09,30,10,38,19.20
2017,09,30,10,39,19.90
2017,09,30,10,40,17.40
2017,09,30,10,41,12.60
2017,09,30,10,42,15.70
2017,09,30,10,43,15.20
2017,09,30,10,44,16.60
2017,09,30,10,45,16.70
2017,09,30,10,46,18.50
2017,09,30,10,47,16.70
2017,09,30,10,48,15.00
2017,09,30,10,49,16.30
2017,09,30,10,50,19.10
2017,09,30,10,51,19.30
2017,09,30,10,52,18.70
2017,09,30,10,53,13.40
2017,09,30,10,54,13.00
2017,09,30,10,55,17.60
2017,09,30,10,56,19.10
2017,09,30,10,57,20.80
2017,09,30,10,58,20.80
2017,09,30,10,59,21.30
2017,09,30,11,00,19.00
2017,09,30,11,01,19.00
2017,09,30,11,02,19.40
2017,09,30,11,03,15.90
2017,09,30,11,04,15.00
2017,09,30,11,05,16.20
2017,09,30,11,06,18.00
2017,09,30,11,07,19.70
2017,09,30,11,08,16.30
2017,09,30,11,09,23.30
2017,09,30,11,10,13.50
2017,09,30,11,11,17.20
2017,09,30,11,12,18.70
2017,09,30,11,13,21.60
2017,09,30,11,14,20.70
2017,09,30,11,15,19.40
2017,09,30,11,16,22.10
2017,09,30,11,17,19.40
2017,09,30,11,18,15.20
2017,09,30,11,19,16.80
2017,09,30,11,20,18.90
2017,09,30,11,21,21.10
2017,09,30,11,22,13.90
2017,09,30,11,23,16.60
2017,09,30,11,24,17.50
2017,09,30,11,25,16.30
2017,09,30,11,26,16.30
2017,09,30,11,27,18.10
2017,09,30,11,28,17.90
2017,09,30,11,29,17.10
2017,09,30,11,30,14.10
2017,09,30,11,31,12.60
2017,09,30,11,32,17.50
2017,09,30,11,33,15.00
2017,09,30,11,34,8.90
2017,09,30,11,35,8.60
2017,09,30,11,36,11.70
2017,09,30,11,37,13.10
2017,09,30,11,38,12.10
2017,09,30,11,39,15.60
2017,09,30,11,40,14.00
2017,09,30,11,41,17.10
2017,09,30,11,42,13.30
2017,09,30,11,43,15.10
2017,09,30,11,44,14.70
2017,09,30,11,45,10.50
2017,09,30,11,46,9.40
2017,09,30,11,47,9.00
2017,09,30,11,48,10.90
2017,09,30,11,49,9.30
2017,09,30,11,50,11.10
2017,09,30,11,51,10.40
2017,09,30,11,52,10.80
2017,09,30,11,53,13.00
2017,09,30,11,54,8.40
2017,09,30,11,55,9.30
2017,09,30,11,56,6.70
2017,09,30,11,57,8.20
2017,09,30,11,58,7.40
2017,09,30,11,59,9.50
2017,09,30,12,00,14.30
2017,09,30,12,01,11.70
2017,09,30,12,02,9.10
2017,09,30,12,03,16.60
2017,09,30,12,04,11.60
2017,09,30,12,05,7.40
2017,09,30,12,06,7.60
2017,09,30,12,07,9.60
2017,09,30,12,08,11.40
2017,09,30,12,09,13.20
2017,09,30,12,10,9.50
2017,09,30,12,11,6.80
2017,09,30,12,12,8.00
2017,09,30,12,13,7.30
2017,09,30,12,14,8.20
2017,09,30,12,15,5.90
2017,09,30,12,16,8.90
2017,09,30,12,17,10.10
2017,09,30,12,18,7.10
2017,09,30,12,19,13.40
2017,09,30,12,20,10.50
2017,09,30,12,21,14.70
2017,09,30,12,22,8.10
2017,09,30,12,23,11.10
2017,09,30,12,24,9.40
2017,09,30,12,25,14.80
2017,09,30,12,26,11.60
2017,09,30,12,27,10.00
2017,09,30,12,28,11.30
2017,09,30,12,29,14.60
2017,09,30,12,30,13.90
2017,09,30,12,31,15.00
2017,09,30,12,32,10.40
2017,09,30,12,33,9.80
2017,09,30,12,34,12.20
2017,09,30,12,35,19.10
2017,09,30,12,36,13.80
2017,09,30,12,37,12.80
2017,09,30,12,38,10.90
2017,09,30,12,39,12.00
2017,09,30,12,40,16.10
2017,09,30,12,41,14.40
2017,09,30,12,42,16.00
2017,09,30,12,43,15.40
2017,09,30,12,44,16.90
2017,09,30,12,45,17.50
2017,09,30,12,46,18.50
2017,09,30,12,47,19.90
2017,09,30,12,48,16.90
2017,09,30,12,49,15.30
2017,09,30,12,50,11.90
2017,09,30,12,51,13.80
2017,09,30,12,52,14.10
2017,09,30,12,53,14.70
2017,09,30,12,54,14.90
2017,09,30,12,55,14.50
2017,09,30,12,56,14.10
2017,09,30,12,57,15.80
2017,09,30,12,58,20.00
2017,09,30,12,59,21.10
2017,09,30,13,00,17.40
2017,09,30,13,01,22.60
2017,09,30,13,02,27.80
2017,09,30,13,03,36.10
2017,09,30,13,04,29.30
2017,09,30,13,05,29.10
2017,09,30,13,06,32.40
2017,09,30,13,07,23.30
2017,09,30,13,08,22.90
2017,09,30,13,09,24.20
2017,09,30,13,10,17.50
2017,09,30,13,11,16.70
2017,09,30,13,12,16.30
2017,09,30,13,13,17.10
2017,09,30,13,14,10.90
2017,09,30,13,15,12.90
2017,09,30,13,16,18.20
2017,09,30,13,17,15.40
2017,09,30,13,18,12.50
2017,09,30,13,19,18.20
2017,09,30,13,20,16.80
2017,09,30,13,21,15.00
2017,09,30,13,22,13.40
2017,09,30,13,23,17.50
2017,09,30,13,24,15.00
2017,09,30,13,25,19.30
2017,09,30,13,26,17.40
2017,09,30,13,27,16.70
2017,09,30,13,28,14.40
2017,09,30,13,29,13.80
2017,09,30,13,30,12.10
2017,09,30,13,31,17.50
2017,09,30,13,32,13.50
2017,09,30,13,33,8.40
2017,09,30,13,34,9.30
2017,09,30,13,35,11.00
2017,09,30,13,36,11.90
2017,09,30,13,37,11.20
2017,09,30,13,38,13.80
2017,09,30,13,39,14.30
2017,09,30,13,40,10.30
2017,09,30,13,41,15.50
2017,09,30,13,42,17.10
2017,09,30,13,43,13.50
2017,09,30,13,44,11.60
2017,09,30,13,45,8.30
2017,09,30,13,46,12.60
2017,09,30,13,47,11.60
2017,09,30,13,48,16.30
2017,09,30,13,49,17.30
2017,09,30,13,50,21.60
2017,09,30,13,51,17.00
2017,09,30,13,52,16.80
2017,09,30,13,53,15.60
2017,09,30,13,54,21.60
2017,09,30,13,55,16.90
2017,09,30,13,56,12.80
2017,09,30,13,57,16.40
2017,09,30,13,58,14.90
2017,09,30,13,59,13.50
2017,09,30,14,00,22.30
2017,09,30,14,01,20.60
2017,09,30,14,02,14.20
2017,09,30,14,03,13.00
2017,09,30,14,04,14.30
2017,09,30,14,05,10.10
2017,09,30,14,06,9.20
2017,09,30,14,07,10.80
2017,09,30,14,08,14.30
2017,09,30,14,09,15.40
2017,09,30,14,10,16.40
2017,09,30,14,11,13.40
2017,09,30,14,12,12.30
2017,09,30,14,13,13.00
2017,09,30,14,14,14.00
2017,09,30,14,15,11.30
2017,09,30,14,16,17.50
2017,09,30,14,17,13.20
2017,09,30,14,18,12.60
2017,09,30,14,19,14.10
2017,09,30,14,20,12.60
2017,09,30,14,21,13.20
2017,09,30,14,22,11.80
2017,09,30,14,23,16.70
2017,09,30,14,24,17.70
2017,09,30,14,25,17.10
2017,09,30,14,26,14.30
2017,09,30,14,27,17.00
2017,09,30,14,28,16.00
2017,09,30,14,29,18.30
2017,09,30,14,30,16.20
2017,09,30,14,31,13.60
2017,09,30,14,32,12.20
2017,09,30,14,33,16.30
2017,09,30,14,34,16.10
2017,09,30,14,35,17.60
2017,09,30,14,36,16.50
2017,09,30,14,37,18.00
2017,09,30,14,38,17.50
2017,09,30,14,39,18.90
2017,09,30,14,40,21.30
2017,09,30,14,41,16.70
2017,09,30,14,42,14.20
2017,09,30,14,43,17.50
2017,09,30,14,44,12.40
2017,09,30,14,45,16.00
2017,09,30,14,46,14.80
2017,09,30,14,47,15.50
2017,09,30,14,48,14.90
2017,09,30,14,49,13.00
2017,09,30,14,50,15.00
2017,09,30,14,51,17.10
2017,09,30,14,52,17.50
2017,09,30,14,53,12.00
2017,09,30,14,54,17.80
2017,09,30,14,55,15.50
2017,09,30,14,56,14.70
2017,09,30,14,57,16.70
2017,09,30,14,58,17.90
2017,09,30,14,59,15.10
2017,09,30,15,00,12.40
2017,09,30,15,01,15.40
2017,09,30,15,02,16.10
2017,09,30,15,03,14.10
2017,09,30,15,04,16.60
2017,09,30,15,05,11.00
2017,09,30,15,06,14.40
2017,09,30,15,07,16.90
2017,09,30,15,08,16.70
2017,09,30,15,09,16.20
2017,09,30,15,10,16.30
2017,09,30,15,11,10.80
2017,09,30,15,12,12.20
2017,09,30,15,13,10.10
2017,09,30,15,14,11.60
2017,09,30,15,15,16.30
2017,09,30,15,16,18.90
2017,09,30,15,17,17.80
2017,09,30,15,18,19.20
2017,09,30,15,19,15.20
2017,09,30,15,20,11.10
2017,09,30,15,21,11.50
2017,09,30,15,22,10.30
2017,09,30,15,23,9.70
2017,09,30,15,24,8.60
2017,09,30,15,25,16.00
2017,09,30,15,26,12.50
2017,09,30,15,27,12.40
2017,09,30,15,28,12.50
2017,09,30,15,29,14.70
2017,09,30,15,30,17.30
2017,09,30,15,31,17.80
2017,09,30,15,32,14.20
2017,09,30,15,33,15.70
2017,09,30,15,34,18.90
2017,09,30,15,35,20.90
2017,09,30,15,36,19.30
2017,09,30,15,37,19.00
2017,09,30,15,38,13.80
2017,09,30,15,39,16.80
2017,09,30,15,40,13.20
2017,09,30,15,41,14.70
2017,09,30,15,42,18.70
2017,09,30,15,43,20.90
2017,09,30,15,44,18.10
2017,09,30,15,45,15.00
2017,09,30,15,46,12.10
2017,09,30,15,47,17.60
2017,09,30,15,48,21.10
2017,09,30,15,49,16.30
2017,09,30,15,50,12.90
2017,09,30,15,51,19.40
2017,09,30,15,52,23.30
2017,09,30,15,53,18.50
2017,09,30,15,54,17.70
2017,09,30,15,55,15.80
2017,09,30,15,56,17.40
2017,09,30,15,57,20.40
2017,09,30,15,58,21.80
2017,09,30,15,59,26.70
2017,09,30,16,00,24.70
2017,09,30,16,01,22.80
2017,09,30,16,02,21.10
2017,09,30,16,03,20.80
2017,09,30,16,04,20.50
2017,09,30,16,05,17.80
2017,09,30,16,06,15.00
2017,09,30,16,07,21.40
2017,09,30,16,08,20.20
2017,09,30,16,09,22.60
2017,09,30,16,10,24.90
2017,09,30,16,11,19.30
2017,09,30,16,12,21.70
2017,09,30,16,13,17.50
2017,09,30,16,14,21.80
2017,09,30,16,15,22.50
2017,09,30,16,16,17.60
2017,09,30,16,17,22.80
2017,09,30,16,18,25.40
2017,09,30,16,19,19.60
2017,09,30,16,20,22.70
2017,09,30,16,21,17.20
2017,09,30,16,22,16.90
2017,09,30,16,23,14.70
2017,09,30,16,24,14.50
2017,09,30,16,25,14.70
2017,09,30,16,26,14.80
2017,09,30,16,27,12.50
2017,09,30,16,28,13.10
2017,09,30,16,29,10.10
2017,09,30,16,30,8.60
2017,09,30,16,31,15.20
2017,09,30,16,32,18.50
2017,09,30,16,33,18.80
2017,09,30,16,34,14.40
2017,09,30,16,35,9.40
2017,09,30,16,36,12.10
2017,09,30,16,37,11.00
2017,09,30,16,38,17.50
2017,09,30,16,39,17.30
2017,09,30,16,40,16.80
2017,09,30,16,41,16.10
2017,09,30,16,42,14.90
2017,09,30,16,43,14.40
2017,09,30,16,44,16.90
2017,09,30,16,45,16.60
2017,09,30,16,46,16.30
2017,09,30,16,47,19.10
2017,09,30,16,48,17.90
2017,09,30,16,49,12.40
2017,09,30,16,50,11.90
2017,09,30,16,51,11.10
2017,09,30,16,52,10.70
2017,09,30,16,53,14.90
2017,09,30,16,54,13.80
2017,09,30,16,55,16.00
2017,09,30,16,56,14.20
2017,09,30,16,57,14.00
2017,09,30,16,58,9.60
2017,09,30,16,59,14.80
2017,09,30,17,00,14.10
2017,09,30,17,01,12.50
2017,09,30,17,02,7.30
2017,09,30,17,03,5.60
2017,09,30,17,04,13.10
2017,09,30,17,05,11.20
2017,09,30,17,06,12.00
2017,09,30,17,07,14.00
2017,09,30,17,08,9.70
2017,09,30,17,09,10.80
2017,09,30,17,10,8.00
2017,09,30,17,11,9.00
2017,09,30,17,12,8.60
2017,09,30,17,13,17.30
2017,09,30,17,14,12.30
2017,09,30,17,15,10.00
2017,09,30,17,16,14.20
2017,09,30,17,17,8.80
2017,09,30,17,18,7.30
2017,09,30,17,19,10.10
2017,09,30,17,20,14.60
2017,09,30,17,21,9.30
2017,09,30,17,22,10.60
2017,09,30,17,23,9.00
2017,09,30,17,24,9.40
2017,09,30,17,25,15.00
2017,09,30,17,26,9.50
2017,09,30,17,27,8.90
2017,09,30,17,28,7.30
2017,09,30,17,29,9.60
2017,09,30,17,30,9.70
2017,09,30,17,31,7.70
2017,09,30,17,32,10.50
2017,09,30,17,33,7.00
2017,09,30,17,34,9.70
2017,09,30,17,35,7.50
2017,09,30,17,36,6.80
2017,09,30,17,37,10.60
2017,09,30,17,38,10.40
2017,09,30,17,39,13.00
2017,09,30,17,40,9.60
2017,09,30,17,41,7.90